Wind_Speed
21 24 28 37 46 51 53 56 57 57 59 61 63 63 62 63 64 65 66 66 67 67 70 73 72 76 77 77 74 69 66 60 59 58 58 56 56 55 42 40 41 42 41 39 35 36 40 44 42 37 37 37 33 34
20 24 27 32 41 47 48 51 52 52 53 54 55 56 56 56 58 59 59 59 58 58 59 65 70 73 71 67 70 74 69 62 60 60 55 48 45 45 36 35 39 40 35 32 30 32 41 44 40 38 39 39 38 35
21 22 27 31 39 44 44 48 48 49 49 51 53 52 53 51 51 52 50 50 50 48 49 55 58 57 57 59 61 61 58 57 53 48 41 37 42 45 44 46 39 40 41 33 32 36 42 46 42 36 37 34 33 35
21 20 27 31 37 45 45 47 48 51 53 50 50 52 49 49 47 46 45 45 44 41 44 47 46 45 44 45 49 45 41 43 37 36 33 36 39 45 48 42 36 42 45 40 39 39 43 49 45 36 35 35 32 26
21 19 26 31 36 44 46 50 49 52 51 50 51 54 53 50 47 45 44 41 39 37 37 39 37 37 36 37 40 36 40 36 35 33 36 43 48 48 42 36 41 47 50 45 41 40 39 38 41 40 38 34 23 29
20 19 25 32 36 43 47 50 51 51 49 49 50 51 51 49 48 47 44 41 40 36 36 34 32 32 33 35 35 34 33 34 35 37 41 46 45 44 38 40 46 51 51 46 42 44 48 46 50 45 42 35 28 28
19 18 24 31 37 44 49 54 52 53 52 50 50 48 48 47 46 45 46 43 43 39 37 31 28 31 32 32 32 33 33 35 36 43 49 53 54 43 41 40 48 51 52 48 45 46 52 54 52 51 47 38 32 33
18 18 25 31 38 44 50 53 55 53 54 52 50 48 46 45 42 40 41 42 42 40 36 32 31 30 29 28 29 32 33 36 41 51 53 53 51 42 36 42 49 51 50 50 48 51 56 54 54 54 53 50 48 45
15 18 24 31 39 44 50 54 56 55 52 52 49 47 47 44 40 38 38 38 38 37 35 32 30 28 25 23 25 28 31 35 40 53 57 56 53 46 34 38 48 48 50 50 56 51 59 62 59 57 55 55 54 50
14 18 24 32 39 46 52 57 58 58 53 52 49 47 47 45 41 39 38 37 38 35 35 33 28 23 19 19 21 24 28 31 38 44 57 58 60 54 47 42 39 41 44 41 38 53 65 61 63 63 64 64 61 58
13 18 24 32 41 48 53 58 62 60 56 53 51 48 48 44 40 39 39 38 38 39 35 31 26 20 15 12 14 19 23 28 32 37 46 55 56 58 56 49 49 50 48 52 46 40 54 69 66 63 63 65 66 69
12 18 25 33 42 49 54 58 63 64 59 55 50 49 46 43 42 40 39 41 42 39 34 29 24 20 15 12 10 14 20 24 27 31 36 41 46 49 53 54 52 56 56 50 41 38 40 55 66 62 60 63 63 60
11 18 25 34 42 50 55 58 61 65 60 55 51 49 46 43 39 39 44 44 42 38 34 30 26 22 17 13 11 10 12 15 20 23 27 31 35 38 40 41 44 49 46 37 34 33 35 39 44 49 50 49 53 47
11 18 25 34 43 51 57 60 65 64 61 58 55 51 47 43 39 45 43 42 43 39 35 32 27 24 20 16 12 10 9 7 9 14 19 24 27 30 31 33 35 36 35 34 37 39 43 39 39 42 46 45 47 51
12 19 26 34 44 53 59 62 68 65 62 60 57 52 49 44 48 48 45 46 44 40 37 33 29 26 22 19 16 14 11 8 6 8 12 18 23 27 29 30 32 35 36 38 38 42 47 50 52 48 47 47 52 50
14 20 28 36 45 55 61 65 67 66 63 60 57 52 49 46 52 52 49 49 46 42 40 36 33 28 24 21 19 17 13 11 10 9 11 17 24 30 32 34 37 40 39 38 37 41 46 47 46 49 50 51 55 56
15 21 29 37 47 57 64 67 66 65 61 59 57 54 50 48 53 53 52 50 47 42 40 36 30 26 24 22 20 17 15 16 16 15 15 16 25 36 35 38 42 43 44 43 42 41 42 43 45 45 49 54 56 59
16 23 31 38 49 59 66 68 66 65 61 59 56 55 52 49 54 55 52 51 47 44 39 35 31 29 28 25 21 20 19 19 19 18 20 21 22 25 32 39 45 47 50 50 49 53 52 54 55 57 58 61 64 64
18 25 32 41 51 60 66 68 66 64 61 56 52 54 54 50 53 54 52 50 47 43 40 38 35 34 31 27 25 22 20 19 18 20 26 27 26 27 31 32 31 33 37 42 46 49 52 63 62 60 61 62 62 63
20 27 34 43 52 61 66 67 64 61 58 56 51 50 53 50 52 52 52 51 49 45 43 40 37 35 32 30 27 25 24 23 24 27 22 34 31 31 31 31 30 33 38 41 44 47 51 56 59 62 65 68 70 71
21 28 36 43 54 62 68 64 60 57 55 54 51 51 53 49 50 50 49 50 50 49 46 43 40 38 36 34 31 30 30 30 31 34 39 41 36 34 35 38 39 38 40 43 45 48 51 56 58 60 63 63 60 58
23 31 38 47 58 65 69 64 59 54 52 51 50 54 55 50 49 50 49 48 48 47 46 45 44 43 40 38 35 33 34 34 34 35 39 40 41 43 44 45 47 46 48 48 49 49 49 48 47 48 49 49 50 51
26 33 42 52 60 65 67 64 59 57 54 51 52 55 52 49 46 46 46 45 44 43 42 41 41 39 38 39 39 40 38 39 40 42 43 44 45 47 49 51 49 51 49 49 48 48 49 48 49 52 55 56 59 61
31 38 45 53 59 65 67 63 59 58 56 54 49 45 46 44 40 40 40 40 40 40 40 40 41 43 45 45 45 44 43 43 45 46 47 48 48 50 51 51 53 50 50 49 50 51 53 56 58 60 62 64 67 69
34 41 47 53 57 62 65 60 57 57 55 51 46 39 42 42 39 36 35 35 38 38 39 40 41 43 43 44 44 45 46 46 48 50 50 50 52 51 54 54 50 49 50 53 55 56 59 62 65 68 70 72 75 76
34 39 46 49 51 55 61 59 55 53 52 44 36 34 36 37 37 35 33 33 34 37 40 42 43 44 44 44 45 45 47 47 50 52 52 53 54 53 48 47 48 50 54 57 61 63 65 68 72 74 75 77 78 80
31 36 40 46 48 50 53 53 53 52 43 36 36 35 35 36 36 35 34 33 33 33 34 35 37 39 40 40 41 43 44 47 50 51 52 51 48 47 48 51 54 57 60 63 65 67 71 74 75 78 78 78 79 80
37 39 44 46 46 47 46 43 40 39 38 38 38 38 37 35 34 34 33 32 31 31 33 35 37 38 40 43 43 42 43 43 43 44 45 47 49 51 54 58 61 62 64 67 70 73 75 77 76 76 77 75 68 61
37 42 46 46 45 43 41 40 38 35 33 31 32 32 32 30 31 32 33 34 34 36 37 39 41 42 42 40 40 40 41 42 44 45 47 49 52 54 58 61 65 66 68 71 75 75 72 70 68 61 57 56 55 53
30 32 36 39 40 38 34 30 28 24 23 24 25 26 28 29 30 31 32 33 34 36 36 37 38 39 39 40 41 42 45 48 51 53 56 58 61 63 65 67 69 70 69 66 63 59 54 52 51 49 49 49 49 47
28 27 28 29 33 34 33 32 30 29 28 26 26 26 26 26 27 29 30 32 34 36 37 37 39 41 43 45 47 49 52 56 59 61 62 64 65 65 64 63 60 57 51 47 46 46 45 46 46 45 45 46 45 45
26 26 26 26 26 27 28 28 28 29 29 30 31 31 31 32 33 34 35 37 38 39 41 43 45 47 50 53 55 55 57 58 59 57 56 55 53 49 45 41 40 41 40 41 41 41 41 41 41 41 41 40 41 41
20 19 18 17 17 18 18 19 20 22 24 25 26 27 28 30 32 35 38 41 42 45 47 48 49 49 49 49 46 43 40 36 34 32 31 32 33 33 33 34 35 35 35 36 37 38 37 36 36 36 37 38 39 40
Wind_Direction
268 247 239 231 223 218 214 213 213 214 216 220 222 222 221 221 222 224 226 230 233 235 236 239 242 246 249 252 257 261 263 265 266 265 262 263 263 262 254 246 239 235 240 246 239 240 236 220 216 220 220 208 222 229
293 245 233 229 222 214 210 207 206 208 210 210 211 212 211 212 214 219 223 227 230 234 236 240 243 248 253 255 254 255 260 263 263 264 260 255 246 247 235 232 234 235 236 230 228 231 224 220 217 221 224 218 213 228
292 254 231 226 219 211 206 202 201 200 200 203 202 202 203 204 208 213 219 222 226 230 233 238 241 243 245 247 251 254 259 261 257 252 250 240 230 231 225 232 239 231 234 215 216 219 220 221 211 216 226 223 219 226
292 254 232 222 216 208 202 197 197 194 192 194 197 195 197 198 202 205 212 217 222 223 226 231 234 236 238 241 247 248 246 247 247 244 235 219 217 227 232 237 230 220 222 209 212 218 218 217 206 211 203 214 230 232
301 252 230 220 215 207 200 193 195 197 193 194 195 194 193 196 200 205 208 213 216 214 219 225 226 229 232 236 242 240 237 235 235 226 223 214 216 221 226 225 218 216 215 212 211 213 209 211 204 204 208 208 236 254
296 253 228 218 212 206 198 190 190 189 191 193 196 196 195 197 203 206 206 210 212 214 219 221 225 227 232 236 234 233 234 231 223 220 214 215 221 227 228 219 210 215 216 215 211 214 212 211 201 204 214 224 253 267
292 250 226 214 208 204 198 190 189 192 193 192 193 193 196 200 205 208 212 217 215 217 219 221 227 228 223 223 229 232 232 231 215 207 208 216 226 224 222 219 216 214 218 220 222 216 215 212 213 215 219 233 251 253
280 244 222 211 206 202 197 191 188 189 191 190 190 192 193 199 202 207 211 212 213 213 217 223 220 216 217 224 234 232 228 222 214 208 211 221 231 230 223 217 211 218 218 222 219 221 218 220 231 226 229 239 245 259
278 240 217 208 202 200 196 190 187 187 189 190 190 191 193 196 197 201 204 205 205 208 214 209 204 209 216 230 238 231 225 220 217 214 213 220 231 235 229 225 221 228 231 235 231 225 225 229 231 238 240 243 255 259
276 236 214 206 198 196 194 189 186 186 189 187 190 190 193 195 198 201 203 204 203 205 198 195 197 204 217 231 230 223 218 219 220 223 220 219 226 234 236 233 222 225 240 255 261 249 240 239 246 249 247 253 260 271
267 229 212 203 196 192 192 189 186 185 188 188 188 190 193 195 197 198 199 201 199 190 188 187 191 199 209 222 220 217 217 218 219 224 226 225 228 234 239 245 253 258 260 265 269 258 248 242 246 252 253 254 260 265
258 221 208 201 195 190 189 188 187 187 189 187 189 192 192 194 195 197 199 193 185 184 184 185 190 193 197 202 197 203 211 216 218 219 224 229 233 239 244 249 255 258 259 259 259 257 256 250 247 252 256 262 272 276
250 214 204 199 195 188 186 185 185 185 186 188 188 189 189 190 194 196 188 182 183 185 182 189 189 189 188 198 185 184 184 198 212 217 221 227 231 234 235 232 232 244 254 259 259 264 264 260 260 263 264 265 271 269
237 210 201 196 192 186 183 183 181 182 185 187 185 185 185 188 191 187 182 180 184 183 184 192 189 192 192 194 193 196 194 185 198 213 216 217 218 224 232 241 245 243 247 252 247 252 252 250 253 259 260 266 275 284
226 204 197 193 189 184 182 182 181 183 185 186 184 184 184 186 185 183 183 184 185 184 186 193 193 198 195 197 198 205 202 204 202 202 211 216 214 220 222 224 224 228 233 232 237 241 248 253 253 254 263 267 270 279
215 199 192 189 188 183 180 180 181 183 185 185 184 184 187 186 185 183 185 187 189 188 190 194 198 201 202 205 208 212 209 215 217 212 218 222 220 217 215 215 218 225 236 236 239 246 255 262 265 269 275 279 283 284
207 193 189 187 185 181 180 179 180 183 185 185 185 187 187 188 187 187 189 191 191 194 197 200 199 200 208 214 218 219 222 227 230 229 229 229 225 216 221 226 231 235 240 246 246 251 254 265 274 280 282 282 284 286
199 188 185 183 183 181 180 180 180 182 184 185 187 188 188 191 191 191 191 194 196 199 200 200 202 205 209 213 220 227 230 235 240 242 245 247 242 237 238 243 242 247 248 253 257 260 264 270 278 282 283 284 285 288
189 183 181 180 181 180 180 180 181 182 183 184 187 190 189 192 196 196 195 197 197 200 203 204 205 210 216 221 226 231 238 244 233 241 247 237 239 245 248 251 255 261 265 267 269 271 276 269 275 279 281 283 284 284
181 178 178 177 179 178 178 178 180 182 185 188 188 191 192 193 197 199 199 200 201 202 206 210 212 216 221 225 230 234 240 241 241 238 250 265 258 258 260 260 267 274 276 277 277 278 278 279 279 280 281 282 282 283
173 173 174 174 175 175 174 176 179 181 183 186 191 194 194 195 199 201 202 204 207 210 212 214 218 222 224 231 235 239 243 248 255 251 253 265 274 275 273 272 279 282 283 285 284 283 285 287 286 284 282 284 287 288
165 167 167 170 173 174 174 174 176 177 181 186 191 195 195 196 200 202 205 207 210 214 218 222 226 229 233 236 233 240 249 254 260 259 260 265 269 272 275 278 283 282 287 286 283 285 286 288 290 291 292 293 294 295
159 162 165 169 173 175 175 177 180 184 186 191 195 197 193 199 201 204 208 211 214 217 221 225 229 232 235 238 241 248 251 257 261 261 263 267 271 273 275 280 281 285 283 282 283 285 288 291 294 295 296 297 298 297
157 161 166 168 171 175 175 177 181 186 191 198 201 195 194 200 204 208 212 216 218 221 224 228 231 234 236 240 247 253 258 260 262 263 264 266 269 272 276 279 282 278 275 277 283 288 290 292 293 295 296 298 299 298
158 163 167 170 172 176 176 179 186 190 195 198 197 188 195 200 205 209 214 221 227 229 230 232 236 239 244 247 252 256 259 261 264 267 268 270 273 276 279 280 274 276 280 283 286 288 289 291 294 296 296 296 297 296
159 166 171 173 170 173 178 184 192 196 199 198 190 193 198 203 209 213 217 223 229 232 234 236 239 244 248 252 255 257 260 263 266 269 271 274 276 278 276 274 277 282 285 287 289 290 291 292 294 295 295 296 297 298
157 165 171 167 168 173 180 187 197 203 198 195 199 202 204 207 210 214 220 226 229 231 234 238 243 247 251 254 256 260 265 269 272 275 277 277 276 274 273 275 277 280 283 287 289 290 291 293 294 296 297 298 298 299
157 165 165 167 171 175 180 187 196 202 199 196 201 206 210 213 216 220 226 229 232 238 243 248 252 255 259 263 267 269 268 269 270 271 274 276 277 279 281 283 285 287 288 289 290 293 295 296 296 296 296 297 298 298
156 164 170 172 175 179 186 192 198 205 207 206 208 212 216 219 224 228 233 238 243 247 251 256 260 261 264 266 268 270 271 272 274 276 277 278 280 282 284 286 287 286 287 288 290 291 292 293 295 297 298 299 300 301
150 163 174 180 184 186 188 192 197 201 204 207 210 214 221 228 233 237 240 243 246 249 252 254 258 262 265 268 270 273 275 277 278 280 281 281 282 283 284 285 286 287 289 291 293 296 297 298 299 300 301 301 301 303
145 154 164 177 188 193 197 201 207 213 215 217 221 225 227 232 238 241 245 248 251 255 259 262 264 267 269 270 271 273 276 278 278 280 282 284 285 287 288 290 291 294 296 298 299 299 300 301 302 303 304 305 306 307
147 153 161 169 179 189 198 205 213 220 226 231 235 240 243 245 247 249 252 256 259 261 264 265 267 268 270 273 274 276 277 278 281 283 284 285 287 289 292 294 296 297 298 300 301 304 306 308 309 309 310 311 311 312
146 154 160 168 177 186 195 204 212 219 225 231 235 239 243 246 248 250 254 257 261 264 267 270 273 275 277 279 280 280 279 280 280 283 285 287 289 291 293 295 297 299 302 304 306 309 311 313 315 315 315 315 315 316
Height
10497 10498 10501 10505 10512 10519 10528 10539 10551 10563 10575 10587 10598 10610 10623 10635 10646 10655 10667 10677 10686 10698 10709 10716 10721 10720 10727 10733 10739 10742 10743 10750 10750 10752 10753 10755 10753 10751 10759 10763 10766 10767 10768 10773 10774 10778 10787 10792 10800 10808 10810 10815 10818 10821
10488 10488 10490 10494 10501 10509 10518 10528 10540 10552 10563 10575 10587 10600 10612 10624 10635 10645 10656 10666 10676 10686 10695 10700 10703 10707 10715 10724 10721 10719 10729 10733 10735 10736 10737 10740 10741 10741 10748 10752 10756 10760 10762 10764 10766 10771 10776 10781 10791 10799 10801 10805 10810 10814
10480 10479 10481 10485 10492 10500 10510 10521 10532 10543 10556 10567 10579 10591 10604 10616 10627 10637 10647 10657 10664 10674 10682 10683 10689 10695 10700 10705 10707 10710 10717 10719 10719 10721 10724 10726 10727 10731 10735 10738 10746 10750 10753 10754 10756 10762 10767 10772 10777 10786 10794 10800 10804 10807
10471 10471 10473 10476 10483 10492 10502 10514 10525 10537 10550 10560 10573 10586 10598 10610 10620 10630 10638 10646 10654 10665 10669 10671 10678 10683 10689 10692 10693 10700 10704 10703 10710 10711 10714 10717 10721 10722 10725 10731 10736 10741 10743 10746 10751 10754 10757 10762 10772 10781 10788 10793 10795 10799
10463 10462 10465 10469 10476 10485 10494 10507 10520 10532 10544 10556 10567 10579 10591 10603 10613 10621 10629 10638 10647 10655 10659 10664 10670 10675 10679 10682 10684 10691 10691 10697 10701 10704 10706 10709 10710 10713 10720 10724 10727 10731 10737 10742 10747 10749 10754 10761 10769 10776 10779 10782 10785 10787
10454 10454 10457 10462 10468 10477 10488 10500 10515 10527 10539 10550 10562 10574 10585 10596 10605 10614 10623 10632 10640 10647 10652 10658 10664 10669 10673 10674 10677 10680 10684 10688 10692 10696 10699 10702 10704 10711 10716 10718 10722 10727 10733 10739 10742 10746 10749 10754 10761 10767 10768 10773 10774 10777
10446 10446 10448 10454 10461 10470 10481 10494 10509 10522 10534 10545 10556 10568 10579 10589 10599 10608 10616 10625 10633 10640 10645 10652 10658 10661 10662 10666 10668 10672 10676 10679 10685 10689 10690 10692 10695 10703 10708 10713 10717 10721 10728 10736 10739 10742 10743 10748 10754 10761 10763 10765 10766 10768
10436 10437 10440 10445 10453 10463 10474 10488 10502 10516 10528 10539 10551 10563 10574 10584 10594 10602 10609 10617 10625 10633 10640 10646 10650 10653 10657 10660 10662 10665 10668 10671 10676 10682 10684 10688 10692 10700 10704 10707 10713 10715 10724 10731 10735 10739 10741 10743 10748 10750 10754 10756 10757 10758
10427 10429 10432 10438 10446 10457 10469 10482 10496 10511 10522 10534 10546 10558 10568 10578 10588 10595 10603 10611 10619 10627 10634 10641 10646 10649 10652 10654 10655 10658 10661 10665 10670 10674 10680 10684 10687 10693 10702 10705 10708 10712 10717 10724 10729 10733 10734 10736 10740 10743 10745 10746 10747 10750
10421 10422 10425 10431 10439 10450 10462 10476 10491 10505 10517 10530 10542 10553 10563 10572 10582 10590 10598 10606 10614 10621 10629 10637 10643 10646 10648 10648 10648 10651 10654 10659 10664 10668 10674 10680 10684 10687 10695 10700 10704 10708 10712 10715 10722 10727 10726 10728 10730 10734 10738 10735 10735 10734
10414 10416 10420 10425 10433 10443 10456 10470 10485 10499 10512 10525 10537 10547 10557 10567 10577 10585 10593 10601 10609 10618 10627 10634 10639 10642 10645 10645 10645 10647 10649 10653 10658 10662 10666 10673 10678 10680 10684 10690 10695 10699 10700 10703 10707 10709 10711 10716 10722 10723 10726 10727 10726 10726
10408 10410 10414 10420 10427 10438 10450 10464 10479 10493 10507 10520 10532 10544 10555 10564 10573 10581 10588 10596 10607 10617 10625 10632 10636 10639 10641 10642 10643 10645 10646 10649 10652 10657 10660 10664 10669 10674 10679 10684 10686 10685 10686 10692 10695 10699 10699 10703 10711 10716 10716 10715 10717 10717
10403 10406 10410 10416 10424 10434 10447 10461 10474 10490 10504 10518 10529 10542 10551 10562 10571 10577 10585 10596 10606 10614 10622 10627 10633 10636 10639 10641 10642 10645 10645 10647 10650 10653 10656 10660 10664 10667 10669 10670 10672 10672 10676 10681 10686 10691 10693 10693 10697 10700 10704 10704 10704 10703
10399 10402 10406 10412 10421 10431 10443 10457 10472 10487 10501 10514 10526 10538 10548 10558 10567 10576 10588 10597 10602 10612 10618 10623 10629 10633 10637 10641 10642 10644 10646 10647 10648 10650 10653 10656 10659 10661 10663 10666 10669 10670 10673 10677 10681 10683 10684 10687 10687 10688 10689 10689 10688 10685
10394 10398 10403 10410 10418 10428 10441 10455 10470 10484 10497 10510 10523 10535 10546 10554 10563 10574 10585 10592 10600 10607 10613 10618 10624 10629 10634 10638 10640 10642 10645 10647 10648 10650 10652 10653 10655 10658 10660 10663 10665 10667 10669 10671 10673 10675 10676 10676 10677 10678 10679 10678 10676 10674
10390 10394 10399 10407 10416 10426 10439 10453 10467 10481 10495 10508 10521 10534 10543 10552 10561 10570 10580 10588 10596 10603 10608 10613 10618 10626 10631 10636 10638 10641 10645 10646 10648 10650 10652 10653 10655 10656 10658 10661 10662 10663 10664 10666 10668 10668 10667 10667 10667 10666 10666 10664 10664 10662
10386 10391 10397 10404 10413 10425 10438 10452 10465 10481 10496 10509 10520 10530 10541 10550 10559 10567 10576 10586 10593 10601 10607 10613 10620 10625 10628 10632 10636 10640 10643 10645 10646 10649 10650 10652 10653 10654 10656 10657 10657 10658 10659 10660 10661 10661 10661 10659 10657 10656 10654 10651 10649 10647
10383 10388 10394 10402 10413 10424 10437 10451 10466 10480 10493 10506 10516 10528 10539 10548 10557 10565 10573 10583 10591 10598 10606 10612 10618 10622 10624 10628 10632 10636 10638 10640 10643 10645 10645 10646 10648 10649 10651 10650 10653 10653 10652 10652 10652 10650 10648 10646 10644 10642 10640 10636 10633 10630
10381 10387 10394 10402 10412 10424 10438 10453 10467 10481 10493 10505 10516 10526 10536 10545 10554 10563 10572 10580 10589 10596 10603 10608 10613 10617 10621 10625 10629 10632 10635 10636 10637 10637 10636 10638 10640 10642 10641 10643 10645 10645 10644 10643 10642 10640 10637 10635 10632 10629 10625 10621 10618 10615
10381 10387 10394 10402 10414 10427 10442 10457 10470 10483 10495 10505 10516 10525 10534 10543 10551 10560 10569 10578 10585 10592 10597 10603 10609 10614 10618 10622 10624 10627 10629 10631 10631 10632 10632 10629 10636 10636 10637 10636 10635 10636 10635 10633 10631 10629 10626 10622 10617 10613 10608 10605 10602 10598
10383 10389 10396 10405 10417 10431 10445 10460 10472 10484 10496 10506 10515 10523 10533 10541 10549 10558 10566 10574 10581 10587 10593 10600 10605 10610 10613 10616 10619 10620 10622 10623 10624 10624 10624 10624 10627 10627 10626 10625 10625 10626 10625 10620 10617 10614 10610 10605 10600 10595 10591 10588 10584 10579
10387 10393 10401 10411 10423 10435 10449 10461 10474 10486 10496 10504 10511 10518 10528 10538 10546 10554 10562 10570 10577 10583 10590 10596 10600 10604 10607 10610 10612 10613 10613 10615 10616 10616 10617 10617 10616 10616 10614 10614 10613 10612 10610 10607 10604 10601 10597 10592 10586 10581 10576 10572 10568 10563
10392 10399 10406 10416 10427 10439 10453 10466 10477 10484 10493 10500 10505 10513 10529 10536 10545 10553 10561 10568 10574 10579 10585 10590 10594 10597 10600 10601 10603 10605 10606 10606 10606 10606 10607 10607 10607 10604 10602 10600 10598 10596 10594 10591 10587 10583 10580 10577 10572 10566 10561 10556 10552 10547
10397 10404 10411 10421 10432 10442 10454 10465 10475 10483 10491 10496 10506 10521 10532 10540 10547 10554 10560 10565 10570 10576 10580 10584 10587 10590 10593 10595 10596 10596 10596 10596 10595 10596 10596 10596 10594 10592 10591 10588 10585 10582 10580 10577 10574 10569 10564 10560 10556 10552 10546 10539 10532 10526
10404 10411 10419 10427 10435 10446 10460 10471 10477 10483 10490 10497 10508 10527 10533 10540 10546 10552 10558 10562 10566 10570 10574 10577 10579 10582 10583 10585 10586 10586 10585 10584 10583 10582 10583 10584 10582 10581 10578 10575 10572 10569 10565 10561 10557 10554 10549 10543 10537 10531 10525 10518 10511 10504
10412 10418 10425 10433 10446 10457 10467 10474 10479 10485 10492 10505 10519 10527 10533 10539 10544 10549 10554 10557 10560 10563 10566 10568 10570 10572 10573 10575 10576 10575 10574 10573 10571 10570 10569 10569 10569 10567 10564 10561 10558 10554 10550 10545 10540 10535 10531 10525 10520 10513 10505 10498 10490 10481
10421 10428 10435 10447 10455 10463 10471 10477 10481 10487 10503 10513 10519 10524 10529 10534 10539 10544 10547 10549 10552 10555 10557 10559 10560 10561 10562 10564 10565 10565 10564 10562 10560 10557 10554 10552 10551 10550 10549 10546 10544 10540 10536 10531 10526 10520 10513 10506 10498 10491 10483 10475 10467 10459
10428 10436 10445 10454 10461 10469 10476 10482 10487 10494 10504 10511 10516 10520 10525 10531 10536 10540 10543 10545 10548 10550 10551 10551 10551 10551 10551 10551 10553 10554 10552 10550 10547 10545 10542 10540 10537 10534 10531 10527 10523 10520 10516 10511 10505 10498 10491 10484 10476 10469 10462 10455 10447 10440
10436 10444 10451 10459 10467 10473 10478 10483 10489 10496 10505 10512 10516 10520 10525 10529 10532 10534 10536 10538 10540 10540 10541 10541 10540 10540 10540 10541 10540 10539 10537 10535 10534 10533 10531 10528 10525 10521 10517 10513 10508 10503 10499 10493 10487 10481 10474 10466 10459 10451 10444 10437 10431 10424
10449 10456 10462 10468 10474 10479 10486 10491 10496 10501 10505 10509 10514 10517 10520 10523 10525 10527 10528 10529 10530 10530 10530 10531 10531 10530 10530 10529 10528 10527 10524 10520 10518 10516 10514 10512 10508 10505 10501 10497 10491 10485 10479 10473 10467 10459 10453 10447 10442 10436 10429 10423 10417 10410
10456 10461 10467 10473 10478 10483 10488 10492 10496 10499 10503 10506 10509 10513 10515 10517 10518 10519 10520 10520 10520 10520 10521 10521 10520 10518 10518 10517 10516 10515 10511 10506 10503 10500 10497 10492 10488 10484 10479 10474 10469 10464 10459 10454 10449 10444 10438 10433 10427 10421 10415 10409 10403 10397
10461 10466 10470 10475 10479 10483 10487 10491 10494 10498 10500 10503 10505 10507 10509 10510 10511 10511 10512 10512 10511 10510 10509 10508 10507 10506 10503 10501 10501 10500 10497 10493 10488 10485 10480 10475 10471 10466 10463 10459 10455 10451 10447 10442 10436 10431 10426 10421 10415 10409 10403 10397 10391 10385
10466 10470 10474 10478 10482 10485 10488 10491 10494 10497 10498 10500 10501 10502 10503 10503 10503 10502 10502 10501 10500 10499 10498 10496 10494 10491 10488 10485 10484 10480 10478 10477 10475 10472 10468 10464 10461 10457 10453 10450 10446 10441 10437 10432 10427 10421 10416 10410 10405 10399 10393 10387 10382 10376